Theta_e
344 342 340 338 338 335 332 328 329 327 329 332 333 333 330 322 315 310 309 312 314 314 314 314 314 313 313 314 313 313 313 312 312 311 312 311 310 310 309 310 310 310 311
343 341 339 338 338 335 328 329 330 331 334 333 333 326 318 313 309 311 313 314 314 314 313 313 312 311 312 312 312 312 312 312 311 311 311 310 310 308 307 309 309 310 310
339 338 338 338 335 332 333 332 332 333 333 331 323 315 310 309 312 314 314 313 313 313 313 312 311 312 312 312 312 312 311 310 310 309 308 308 309 307 308 309 310 309 308
340 340 338 336 332 333 334 332 332 331 326 317 312 309 310 313 313 313 312 313 313 313 312 312 313 313 312 312 311 311 310 310 308 307 307 308 308 308 308 309 309 309 309
339 336 334 333 333 334 331 329 327 319 314 309 309 311 313 313 313 313 312 313 313 312 313 313 312 311 311 311 311 311 311 309 306 308 308 306 307 306 307 309 309 309 310
335 334 333 332 329 327 324 320 315 310 308 309 311 313 313 312 312 313 313 312 312 311 312 311 310 311 310 310 310 310 310 308 308 306 306 305 305 306 306 307 308 307 307
330 326 321 322 321 317 313 310 309 309 309 310 310 311 312 312 312 312 313 312 312 312 312 311 310 309 309 309 310 310 310 309 307 305 305 305 304 305 305 306 307 307 307
319 317 316 315 313 310 309 309 309 309 310 310 310 311 312 312 312 312 312 312 311 311 310 308 308 307 307 308 309 310 310 309 308 306 305 305 305 305 306 306 306 308 309
314 314 312 311 311 310 310 309 309 309 310 312 312 311 311 311 311 311 311 308 309 308 307 308 308 306 305 306 308 309 309 310 309 306 305 307 307 306 306 307 307 306 307
312 311 311 310 310 309 309 309 309 310 310 310 310 310 310 310 310 310 310 310 307 305 304 303 305 303 302 304 308 309 309 310 307 310 307 305 305 306 306 305 304 304 304
310 310 309 309 308 309 309 309 308 308 309 309 309 308 309 309 309 309 310 309 307 303 302 302 302 301 300 305 307 308 308 309 307 308 308 307 306 307 307 305 304 303 304
308 308 308 308 307 307 309 309 309 309 308 306 305 303 305 306 307 307 306 305 304 302 302 301 299 298 300 306 307 308 309 308 306 308 307 307 307 307 307 305 305 305 304
308 307 307 306 306 307 307 307 306 305 305 304 304 302 300 299 301 302 302 303 304 301 298 295 294 296 301 301 305 306 307 308 307 305 306 306 306 306 306 307 306 307 306
307 306 304 304 303 303 303 303 304 304 303 303 303 302 300 299 302 302 303 303 300 296 296 295 294 296 298 300 300 300 301 304 305 305 306 304 307 307 307 306 306 305 306
304 303 303 302 302 302 301 299 302 302 301 299 297 298 296 294 295 295 295 294 293 293 294 294 294 295 295 295 297 297 298 299 301 301 301 301 305 306 307 306 306 305 304
303 303 302 302 300 299 301 299 296 295 296 295 294 293 294 293 291 290 290 290 291 292 293 293 292 292 292 292 293 294 296 297 298 298 299 300 301 304 305 306 306 305 303
303 302 302 302 301 299 297 295 294 291 291 291 291 291 290 290 289 290 290 290 290 291 292 291 291 291 291 291 291 292 294 294 296 298 299 299 301 301 304 305 305 306 305
302 302 302 301 301 300 300 299 298 296 295 293 290 289 289 289 289 290 291 291 291 291 290 290 290 290 290 290 291 292 293 293 294 296 297 298 299 300 301 303 304 304 304
300 300 300 299 299 298 297 297 296 295 295 294 294 293 291 290 290 290 290 291 290 290 290 289 289 289 289 289 290 291 292 292 293 294 295 297 298 299 300 301 303 305 305
297 296 297 296 296 296 296 295 295 294 293 292 291 292 292 292 292 291 290 290 290 289 289 288 288 288 288 288 289 290 291 292 292 293 294 295 296 299 301 301 301 303 305
295 295 295 295 295 295 295 294 294 293 293 291 289 288 290 291 291 290 290 289 289 288 288 287 287 287 287 287 288 288 290 290 291 292 293 294 295 297 299 300 301 302 304
295 295 295 294 294 294 294 293 293 293 292 292 291 289 289 290 290 289 289 289 288 287 287 287 287 286 287 287 287 287 288 288 289 290 293 294 294 295 297 299 301 302 303
295 294 294 293 293 293 293 293 293 292 291 291 290 290 289 289 289 289 288 288 288 287 287 286 286 286 286 287 287 287 287 288 288 289 292 293 294 294 296 298 300 300 303
294 294 294 293 293 293 292 291 290 290 291 290 290 289 289 288 288 288 288 287 287 287 286 286 286 285 286 286 287 287 287 287 288 289 291 292 293 293 294 295 298 299 300
294 293 293 293 293 292 292 292 291 291 290 290 289 289 288 288 288 287 287 287 287 287 286 286 285 285 285 286 286 286 287 287 287 288 290 291 292 291 293 293 296 299 300
294 294 293 293 293 292 292 292 291 290 289 289 289 288 288 287 287 287 287 286 287 287 286 286 285 285 285 285 286 286 287 287 287 288 289 290 290 291 291 292 294 297 299
Wind_Speed
29 27 26 26 25 24 21 13 15 15 10 4 0 3 5 6 8 8 7 6 6 8 10 12 14 12 9 10 13 14 17 20 26 30 28 29 28 28 29 32 29 27 27
30 29 26 25 28 25 20 17 15 11 7 4 2 2 5 6 6 4 3 4 7 10 12 11 10 9 11 15 16 18 18 21 24 30 30 29 28 32 31 33 27 32 27
33 30 30 30 27 26 20 17 14 11 8 4 2 3 4 2 2 4 5 7 9 10 9 10 11 14 16 19 21 21 20 23 23 26 29 32 32 27 33 30 32 29 23
32 34 31 26 24 22 21 18 14 10 7 3 1 1 3 6 7 8 9 9 9 9 10 12 15 17 18 20 23 22 23 26 25 25 31 36 34 31 30 33 36 33 31
35 32 28 27 25 25 22 17 12 8 5 2 4 6 9 9 9 9 10 10 10 10 12 14 14 16 19 21 23 24 26 27 26 32 34 34 34 33 32 33 33 34 35
36 35 33 32 28 22 17 14 10 8 7 8 10 11 12 10 10 11 11 10 10 10 12 14 15 18 19 21 22 24 27 29 31 32 32 32 32 31 31 32 33 34 30
37 33 28 26 24 22 17 14 12 11 12 13 13 12 11 9 10 12 11 11 11 13 14 17 18 20 24 25 24 22 20 24 27 28 32 28 29 27 27 31 32 31 32
31 28 26 24 22 19 17 15 15 14 14 13 12 10 8 7 8 9 9 9 10 12 15 17 20 22 25 27 26 23 21 19 25 29 30 25 22 23 21 24 27 30 29
30 27 24 23 21 19 18 17 16 16 15 13 11 9 7 7 7 8 8 9 9 11 13 16 20 23 24 25 25 25 24 25 25 25 26 23 20 20 20 25 30 29 32
28 26 24 22 21 20 19 19 18 16 15 12 10 8 6 6 5 6 8 7 9 8 10 13 20 22 23 24 24 25 25 27 28 33 29 25 23 23 24 26 25 23 24
28 26 25 23 22 22 21 19 17 16 14 11 9 7 6 5 7 8 7 7 8 9 9 12 16 20 20 20 20 23 24 25 23 30 31 26 26 26 26 28 23 19 20
29 28 26 24 21 20 20 18 16 14 11 10 9 9 9 9 10 10 11 11 12 11 13 16 17 18 16 14 18 19 21 22 22 28 33 33 32 31 30 28 26 20 18
30 29 26 23 21 20 19 16 14 12 10 9 7 7 9 10 10 10 12 12 12 12 12 14 13 14 14 15 16 20 24 26 26 25 31 35 33 33 31 29 28 26 25
32 29 25 24 23 21 18 16 15 13 11 9 8 8 8 10 11 13 12 11 11 12 13 14 16 17 18 16 16 18 23 28 28 28 29 32 34 35 36 35 34 34 35
30 28 26 24 22 22 22 19 17 15 13 10 12 9 9 11 15 15 14 14 14 12 13 12 15 17 18 19 19 19 20 24 28 27 27 27 36 37 37 37 36 37 39
28 25 24 23 22 23 23 24 23 20 17 17 16 14 15 14 14 12 14 14 11 13 13 16 18 20 20 21 22 22 23 24 24 26 26 27 35 37 38 38 38 36 36
26 24 23 21 19 19 18 18 22 21 19 19 19 18 17 15 13 12 10 14 16 16 16 18 19 20 21 22 24 23 24 24 23 24 25 26 28 32 37 37 38 37 36
25 25 21 19 18 16 15 14 13 12 12 14 19 17 16 15 14 11 14 15 15 18 19 19 19 20 21 23 24 24 23 24 25 25 25 27 27 31 33 36 35 35 34
22 20 19 18 17 17 16 15 14 13 13 12 10 13 16 17 16 18 20 17 17 18 19 19 19 20 21 22 23 23 23 24 25 25 25 26 27 27 30 33 31 32 32
22 23 21 19 17 16 15 15 14 13 12 12 12 11 12 13 15 16 17 17 17 18 18 18 19 20 20 21 22 23 24 24 25 25 26 27 27 26 26 34 32 34 30
20 20 21 18 17 16 15 14 13 13 13 13 15 15 18 14 14 15 15 16 16 17 18 18 19 20 20 22 22 23 24 24 24 25 26 27 27 27 26 26 32 31 31
19 19 18 17 17 16 15 14 13 13 13 13 11 13 19 13 13 13 14 15 15 16 17 18 18 21 22 22 23 24 25 26 25 24 26 26 27 26 25 25 26 32 30
18 18 17 17 17 17 15 14 13 13 13 12 11 12 12 12 12 12 13 14 14 15 16 18 19 20 22 24 24 25 28 28 27 23 24 25 26 26 24 24 24 30 30
18 17 16 15 15 14 14 13 14 14 12 11 11 12 11 11 12 12 12 13 13 14 15 16 18 21 23 24 25 25 26 26 27 23 23 23 23 25 24 24 23 24 30
16 16 15 14 14 14 13 12 11 10 10 10 10 10 10 11 11 11 11 12 12 13 14 15 18 20 21 23 23 24 23 24 24 22 23 22 21 24 23 23 24 23 27
15 15 13 13 12 12 11 10 10 9 9 9 9 9 9 10 9 9 10 11 11 12 13 14 17 19 21 22 22 23 24 24 23 21 24 22 22 22 24 24 24 23 26
Wind_Direction
163 152 159 164 174 170 174 173 173 163 142 134 240 294 306 320 323 320 334 341 336 338 350 350 350 350 334 335 344 336 334 331 323 325 332 329 332 325 329 335 336 329 323
161 162 165 171 172 173 165 159 159 156 149 195 241 297 314 318 337 351 359 348 356 8 3 9 5 7 357 349 352 345 335 333 327 323 328 331 329 330 333 335 330 331 326
159 163 164 171 170 167 170 160 152 157 176 199 230 293 328 351 62 67 42 26 15 15 31 21 13 8 4 2 359 347 336 335 333 326 327 337 339 335 331 339 336 343 341
156 156 159 163 164 162 157 155 157 167 172 182 227 55 99 102 89 67 43 28 34 34 29 20 13 8 7 0 358 349 341 346 338 334 336 341 343 343 337 337 344 354 350
151 152 155 153 152 153 151 150 159 153 142 109 95 104 104 99 84 65 46 40 32 25 22 21 20 20 12 3 355 351 352 351 345 344 343 341 343 341 338 341 338 342 340
144 142 141 144 144 146 149 150 146 142 136 130 124 120 116 98 76 59 54 39 34 27 25 23 20 13 7 2 356 357 357 350 351 344 339 340 338 337 337 338 338 341 330
136 134 134 137 141 141 141 135 130 122 117 115 110 108 102 88 64 51 42 37 31 26 25 19 13 4 2 360 359 358 346 342 341 341 338 336 334 339 338 341 343 338 334
127 126 128 133 131 129 124 121 116 113 115 114 112 103 91 73 47 29 19 25 21 23 20 15 11 4 359 358 360 358 356 346 348 344 341 337 344 342 342 345 343 341 349
123 123 123 125 122 120 119 118 115 116 117 119 118 105 81 60 26 12 14 16 7 6 4 3 4 358 357 356 358 0 2 359 360 352 348 356 353 358 4 359 353 352 349
121 120 120 119 121 120 120 119 117 115 114 115 116 102 74 53 20 12 13 21 359 7 354 352 349 352 351 352 359 3 2 3 1 8 6 355 356 8 20 16 354 352 352
121 120 120 121 124 123 120 117 117 115 114 105 94 78 60 34 19 9 7 10 2 3 353 348 347 350 348 353 5 7 6 6 357 14 13 10 8 16 24 22 6 1 352
125 123 121 120 117 119 121 117 114 108 103 92 77 60 44 40 41 27 24 17 9 2 359 356 352 346 347 4 14 10 14 13 10 17 19 19 19 21 26 26 20 20 15
124 122 119 116 114 112 110 105 97 93 93 90 82 71 53 42 35 32 26 17 7 2 0 357 351 357 6 8 13 16 18 20 17 15 14 20 22 26 28 29 29 30 31
123 119 116 113 108 102 96 94 93 87 89 90 81 65 49 30 33 28 23 19 14 13 15 358 14 19 8 15 14 12 13 19 20 16 14 14 21 29 32 34 32 27 26
119 115 112 109 109 109 107 94 99 111 113 91 69 75 61 45 40 33 28 25 21 23 31 19 23 23 17 18 16 12 12 13 15 15 10 9 20 26 30 31 33 35 28
115 113 112 108 105 106 109 105 92 87 87 83 78 72 61 54 45 35 33 29 25 52 35 31 28 27 21 16 16 12 11 8 5 7 7 9 12 20 25 29 31 32 30
116 115 114 112 113 111 107 100 92 82 79 78 75 68 59 51 43 39 41 45 40 45 44 34 28 26 20 19 21 14 9 6 6 7 7 7 7 11 22 27 27 28 33
118 117 116 117 117 113 109 103 98 95 81 64 63 60 59 54 48 45 57 44 33 36 37 34 27 22 20 20 20 14 11 9 11 10 9 7 9 8 12 25 27 27 29
113 115 115 115 116 112 108 105 101 96 87 79 61 39 40 45 45 43 46 41 37 36 32 30 26 22 19 18 18 14 13 12 13 11 11 10 8 9 9 15 21 30 31
115 116 111 108 106 106 105 103 97 92 86 76 65 57 58 42 42 37 37 35 34 36 33 28 24 24 19 17 15 12 12 12 13 12 12 11 10 11 10 6 19 26 27
113 111 110 109 110 110 108 106 103 98 88 74 64 62 72 53 45 40 36 34 29 32 33 29 23 24 20 18 17 13 13 12 11 9 11 12 9 12 12 12 10 22 26
110 110 112 111 107 107 106 102 97 90 83 75 64 46 59 53 48 44 40 35 29 30 32 30 25 24 24 21 18 15 17 16 13 9 9 10 8 12 12 14 13 21 26
115 115 115 113 111 101 100 95 89 84 78 73 67 58 51 51 46 44 39 36 28 29 30 33 30 26 27 28 25 22 20 19 19 11 10 7 8 12 12 14 13 13 26
117 116 115 114 112 103 97 90 87 94 89 78 68 60 53 46 41 39 39 35 31 27 30 29 29 29 27 29 28 26 22 19 22 20 19 7 10 12 14 14 17 12 15
119 116 109 107 105 100 97 96 91 87 83 77 73 69 62 53 42 35 35 35 29 29 26 28 28 26 27 27 26 26 24 23 20 20 30 10 14 12 18 15 19 14 18
118 116 114 110 108 104 101 99 97 92 86 81 75 66 58 57 47 37 34 32 30 24 26 23 24 28 27 25 22 23 23 23 21 24 31 16 14 16 20 18 21 17 19